Location: Longueuil
(45.5369°N, 73.5107°W)
Time: 01:31:14
(UTC-05:00)

ISS - Pass Details

Date: 27 November 2023
Orbit: 415 x 417 km, 51.6° (Epoch: 09 December)

Event Time Altitude Azimuth Distance (km) Brightness Sun altitude
Rises 18:29:06 0° 297° (WNW) 2,363 0.9 -23.1°
Reaches altitude 10° 18:31:18 10° 306° (NW) 1,498 -0.4 -23.5°
Enters shadow 18:32:56 23° 324° (NW) 929 -1.8 -23.8°
